Aérodrome :
LOGIN :

S'inscrire | Disclaimer

   EN    FR    IT 

 










Légende :    VFR   VFR Marginal   IFR   IFR Intensif   IFR Très Intensif
Visi : 
Plafond : 
>= 8 km
>= 3000ft
5 à 8 km
1000 à 3000 ft
1500m à 5 km
500 à 1000 ft
800 à 1500m
200 à 500 ft
< 800m
< 200 ft
Symboles :   Orages  Brouillard  Fortes neiges  Fortes précipitations  Vent > 20 kt
SIGMETs :   Divers  Orages  Givrage  Turbulence  Onde Orograph.  Cendres Volcan.







- Altitude de l'aérodrome : 1989 ft
- Code IATA : KLV


LKKV - Karlovy Vary

DERNIER METAR :
  • 210000Z 26007KT 230V300 9999 SCT025 10/06 Q1017

METARs EXPIRÉS :
  • 202300Z 26006G19KT 200V360 9999 SCT018 BKN028 11/10 Q1016
  • 202223Z 24004KT 210V280 9999 SCT021 BKN030 12/10 Q1016 RMK REG QNH 1014
  • 202200Z 26006KT 9999 SCT017 BKN022 12/10 Q1016

TAF TAF LKKV
Valide du 21 à 00h jusqu'au 22 à 06h UTC


202300Z 2100/2206 25006KT 7000 BKN023
TEMPO 2100/2107 2500 BR BKN010
BECMG 2115/2117 17004KT
BECMG 2121/2200 26012KT 5000 -RA BR BKN017
TEMPO 2200/2206 3000 RA BKN007
Pas de NOTAMs connus pour ce terrain.



MET'MAP, la Météo Aéronautique d'un coup d'oeil ! - Copyright ORBIFLY Décembre 2007 - Disclaimer

ORBIFLY MET'MAP TEAM :

Programmation & Développement : Alexandra Zaïnal
Conception & Développement : Baudouin d'Aumeries
Co-Programmation & Développement : Marc-Olivier Méhu
Soutien technique & logistique : Manuel Goepfert

Contact : metmap@orbifly.com




SOURCES & CREDITS :

   NOAA